Weather in Bolshaya Orlovka

Russia / Rostov Oblast     47°19′49″N   41°16′25″E
temp.,
°C
wind,
m/s
gust,
m/s
humid.,
%
clouds,
%
prec.,
mm/h
press.,
hPa
HPBL,
m
19 january, wed
wed1900:00−2ssw39929 0.0 1012240
03:00−1w589353 0.0 1014547
06:00−6wsw119537 0.0 101517
09:00−4ssw389036 0.1 1017322
12:00−1sw576960 0.0 10171045
15:00−1wsw466595 0.1 10171245
18:00−4sw228554 0.1 101839
21:00−4wsw239281 0.1 101855
20 january, thu
thu2000:00−4nw239289 0.1 1019179
03:00−5nw2392100 0.1 1019197
06:00−5nw3491100 0.2 1019332
09:00−6wnw248694 0.3 1020453
12:00−4w3476100 0.1 1020774
15:00−4w3581100 0.2 1020670
18:00−5wsw11875 0.1 102010
21:00−6s22905 0.1 102026
21 january, fri
fri2100:00−6sse358899 0.0 101990
03:00−4sse3596100 0.1 1018136
06:00−3sse61096100 1.2 1016344
09:000s61497100 1.9 1015767
12:00+2ssw81699100 1.0 10131015
15:00+2sw71698100 2.9 1013857
18:00+1sw61298100 0.4 1013517
21:00+1sw41098100 1.3 1013447
22 january, sat
sat2200:000wsw3799100 0.6 1014387
03:00−2wnw3597100 1.6 1015387
06:00−2wnw1397100 1.4 1014189
09:00−2sw1297100 2.2 1016186
12:00−1sw3495100 0.9 1016377
15:000ssw2386100 1.3 1016337
18:00−2sse2294100 0.0 101734
21:00−3se2294100 0.0 101827
23 january, sun
sun2300:00−2ne2393100 0.0 101871
03:00−3ne4894100 0.0 1017249
06:00−3ne51190100 0.0 1017379
09:00−2nne61396100 0.3 1016493
12:00−1ne61196100 0.6 1015538
15:00−1ne61095100 1.4 1014475
18:00−1ne51097100 0.5 1014376
21:000e4999100 1.9 1014356